Weather History for PADQ - October, 2011

Change the Weather History Date:

Monday, October 31, 2011

  Actual Average Record
Temperature  
Mean Temperature 39 °F 37 °F  
Max Temperature 42 °F 42 °F 50 °F (2003)
Min Temperature 35 °F 31 °F 10 °F (1975)
Degree Days  
Heating Degree Days 26 28  
Month to date heating degree days 706 760  
Since 1 July heating degree days 1798 1858  
Cooling Degree Days 0    
Month to date cooling degree days 0  
Year to date cooling degree days 0  
Moisture  
Dew Point 31 °F    
Average Humidity 0    
Maximum Humidity 0    
Minimum Humidity 0    
Precipitation  
Precipitation 0.03 in 0.25 in 7.44 in (1991)
Month to date precipitation 5.21 8.26  
Year to date precipitation 60.08 62.40  
Snow  
Snow 0.00 in 0.10 in 0.50 in (2014)
Month to date snowfall T 1.1  
Since 1 July snowfall T 1.1  
Since 1 September snowfall 0.0 1.1  
Snow Depth 0.00 in    
Sea Level Pressure  
Sea Level Pressure 29.59 in    
Wind  
Wind Speed 5 mph (WSW)    
Max Wind Speed 14 mph    
Max Gust Speed 17 mph    
Visibility 10 miles    
Events Rain    
T = Trace of Precipitation, MM = Missing Value Source: NWS Daily Summary

Daily Weather History Graph

Daily Weather History Graph

Search for Another Location

Airport or City:

Trip Planner

Search our weather history database for the weather conditions in past years. The results will help you decide how hot, cold, wet, or windy it might be!

Date:

Astronomy

Oct. 31, 2011 Rise Set
Actual Time 9:20 AM AKDT 6:25 PM AKDT
Civil Twilight 8:39 AM AKDT 7:07 PM AKDT
Nautical Twilight 7:52 AM AKDT 7:53 PM AKDT
Astronomical Twilight 7:07 AM AKDT 8:38 PM AKDT
Moon 3:03 PM AKDT (10/31) 10:49 PM AKDT (10/31)
Length of Visible Light 10h 27m
Length of Day
9h 04m
Waxing Crescent, 31% of the Moon is Illuminated
Oct 31
Waxing Crescent
Nov 2
First Quarter
Nov 10
Full
Nov 18
Last Quarter
Nov 24
New

Hourly Weather History & Observations

Time (AKDT) Temp. Windchill Dew Point Humidity Pressure Visibility Wind Dir Wind Speed Gust Speed Precip Events Conditions
12:53 AM 37.0 °F - 32.0 °F 82% 29.63 in 10.0 mi Calm Calm - 0.02 in Rain Light Rain
1:53 AM 37.0 °F 31.0 °F 34.0 °F 89% 29.60 in 10.0 mi South 8.1 mph - 0.03 in   Overcast
2:53 AM 39.0 °F 34.0 °F 33.1 °F 79% 29.60 in 10.0 mi SW 6.9 mph - N/A   Scattered Clouds
3:53 AM 39.9 °F 33.9 °F 33.1 °F 77% 29.59 in 10.0 mi SSW 9.2 mph - N/A   Scattered Clouds
4:53 AM 39.9 °F 35.1 °F 33.1 °F 77% 29.58 in 10.0 mi SW 6.9 mph - N/A   Scattered Clouds
5:53 AM 41.0 °F 36.4 °F 33.1 °F 73% 29.58 in 10.0 mi SW 6.9 mph - N/A   Scattered Clouds
6:53 AM 41.0 °F 39.0 °F 34.0 °F 76% 29.57 in 10.0 mi West 3.5 mph - N/A   Scattered Clouds
7:53 AM 42.1 °F 37.1 °F 33.1 °F 70% 29.60 in 10.0 mi NW 8.1 mph - 0.00 in Rain Light Rain
8:53 AM 39.9 °F - 34.0 °F 79% 29.62 in 10.0 mi Calm Calm - 0.00 in Rain Light Rain
9:53 AM 39.9 °F 37.8 °F 34.0 °F 79% 29.63 in 10.0 mi NW 3.5 mph - 0.00 in   Overcast
10:53 AM 36.0 °F 32.1 °F 33.1 °F 89% 29.65 in 10.0 mi West 4.6 mph - N/A   Overcast
11:53 AM 39.0 °F - 33.1 °F 79% 29.65 in 10.0 mi Calm Calm - N/A   Mostly Cloudy
12:53 PM 39.9 °F 33.9 °F 33.1 °F 77% 29.65 in 10.0 mi South 9.2 mph - N/A   Mostly Cloudy
1:53 PM 42.1 °F 37.1 °F 32.0 °F 67% 29.64 in 10.0 mi South 8.1 mph - N/A   Mostly Cloudy
2:53 PM 42.1 °F - 30.9 °F 65% 29.62 in 10.0 mi Calm Calm - N/A   Mostly Cloudy
3:53 PM 44.1 °F 42.5 °F 30.9 °F 60% 29.61 in 10.0 mi SSW 3.5 mph - N/A   Mostly Cloudy
4:53 PM 44.1 °F 41.5 °F 27.0 °F 51% 29.59 in 10.0 mi West 4.6 mph - N/A   Mostly Cloudy
5:53 PM 36.0 °F 33.3 °F 28.0 °F 73% 29.57 in 10.0 mi WNW 3.5 mph - N/A   Scattered Clouds
6:53 PM 33.1 °F 27.7 °F 27.0 °F 78% 29.56 in 10.0 mi West 5.8 mph - N/A   Scattered Clouds
7:53 PM 30.9 °F 24.3 °F 27.0 °F 85% 29.55 in 10.0 mi West 6.9 mph - N/A   Scattered Clouds
8:53 PM 30.9 °F 25.2 °F 27.0 °F 85% 29.53 in 10.0 mi West 5.8 mph - N/A   Scattered Clouds
9:53 PM 30.9 °F 27.5 °F 26.1 °F 82% 29.51 in 10.0 mi WSW 3.5 mph - N/A   Partly Cloudy
10:53 PM 34.0 °F 28.8 °F 27.0 °F 75% 29.50 in 10.0 mi West 5.8 mph - N/A   Scattered Clouds
11:53 PM 36.0 °F 30.3 °F 28.0 °F 73% 29.49 in 10.0 mi NW 6.9 mph - N/A   Scattered Clouds